Year,Month,Day,Hour,Minute,Value (Times are PST for temperature in C)
2008,12,16,00,00,-6.40
2008,12,16,00,01,-6.50
2008,12,16,00,02,-6.50
2008,12,16,00,03,-6.50
2008,12,16,00,04,-6.50
2008,12,16,00,05,-6.50
2008,12,16,00,06,-6.50
2008,12,16,00,07,-6.50
2008,12,16,00,08,-6.50
2008,12,16,00,09,-6.60
2008,12,16,00,10,-6.60
2008,12,16,00,11,-6.60
2008,12,16,00,12,-6.60
2008,12,16,01,02,-6.10
2008,12,16,01,03,-6.10
2008,12,16,01,04,-6.10
2008,12,16,01,05,-6.10
2008,12,16,01,06,-6.10
2008,12,16,01,07,-6.20
2008,12,16,01,08,-6.20
2008,12,16,01,09,-6.20
2008,12,16,01,10,-6.20
2008,12,16,01,11,-6.30
2008,12,16,01,12,-6.30
2008,12,16,01,13,-6.30
2008,12,16,01,14,-6.30
2008,12,16,01,15,-6.40
2008,12,16,01,16,-6.40
2008,12,16,01,17,-6.50
2008,12,16,01,18,-6.50
2008,12,16,01,19,-6.50
2008,12,16,01,20,-6.60
2008,12,16,01,21,-6.60
2008,12,16,01,22,-6.60
2008,12,16,01,23,-6.50
2008,12,16,01,24,-6.50
2008,12,16,01,25,-6.50
2008,12,16,01,26,-6.50
2008,12,16,01,27,-6.40
2008,12,16,01,28,-6.40
2008,12,16,01,29,-6.40
2008,12,16,01,30,-6.40
2008,12,16,01,31,-6.40
2008,12,16,01,32,-6.40
2008,12,16,01,33,-6.30
2008,12,16,01,34,-6.30
2008,12,16,01,35,-6.30
2008,12,16,01,36,-6.30
2008,12,16,01,37,-6.20
2008,12,16,01,38,-6.20
2008,12,16,01,39,-6.10
2008,12,16,01,40,-6.10
2008,12,16,01,41,-6.00
2008,12,16,01,42,-5.90
2008,12,16,01,43,-5.90
2008,12,16,01,44,-5.90
2008,12,16,01,45,-5.80
2008,12,16,01,46,-5.80
2008,12,16,01,47,-5.70
2008,12,16,01,48,-5.70
2008,12,16,01,49,-5.60
2008,12,16,01,50,-5.50
2008,12,16,01,51,-5.50
2008,12,16,01,52,-5.40
2008,12,16,01,53,-5.40
2008,12,16,01,54,-5.40
2008,12,16,01,55,-5.40
2008,12,16,01,56,-5.40
2008,12,16,01,57,-5.40
2008,12,16,01,58,-5.40
2008,12,16,01,59,-5.40
2008,12,16,02,00,-5.40
2008,12,16,02,01,-5.40
2008,12,16,02,02,-5.40
2008,12,16,02,03,-5.40
2008,12,16,02,04,-5.50
2008,12,16,02,05,-5.50
2008,12,16,02,06,-5.50
2008,12,16,02,07,-5.60
2008,12,16,02,08,-5.60
2008,12,16,02,09,-5.60
2008,12,16,02,10,-5.60
2008,12,16,02,11,-5.60
2008,12,16,02,12,-5.70
2008,12,16,02,13,-5.70
2008,12,16,02,14,-5.70
2008,12,16,02,15,-5.70
2008,12,16,02,16,-5.80
2008,12,16,02,17,-5.80
2008,12,16,02,18,-5.90
2008,12,16,02,19,-5.90
2008,12,16,02,20,-5.90
2008,12,16,02,21,-5.90
2008,12,16,02,22,-6.00
2008,12,16,02,23,-6.10
2008,12,16,02,24,-6.10
2008,12,16,02,25,-6.10
2008,12,16,02,26,-6.10
2008,12,16,02,27,-6.10
2008,12,16,02,28,-6.10
2008,12,16,02,29,-6.10
2008,12,16,02,30,-6.20
2008,12,16,02,31,-6.20
2008,12,16,02,32,-6.10
2008,12,16,02,33,-6.10
2008,12,16,02,34,-6.10
2008,12,16,02,35,-6.10
2008,12,16,02,36,-6.10
2008,12,16,02,37,-6.20
2008,12,16,02,38,-6.20
2008,12,16,02,39,-6.20
2008,12,16,02,40,-6.20
2008,12,16,02,41,-6.20
2008,12,16,02,42,-6.20
2008,12,16,02,43,-6.20
2008,12,16,02,44,-6.20
2008,12,16,02,45,-6.20
2008,12,16,02,46,-6.20
2008,12,16,02,47,-6.20
2008,12,16,02,48,-6.20
2008,12,16,02,49,-6.20
2008,12,16,02,50,-6.30
2008,12,16,02,51,-6.30
2008,12,16,02,52,-6.30
2008,12,16,02,53,-6.30
2008,12,16,02,54,-6.30
2008,12,16,02,55,-6.40
2008,12,16,02,56,-6.40
2008,12,16,02,57,-6.40
2008,12,16,02,58,-6.40
2008,12,16,02,59,-6.40
2008,12,16,03,00,-6.40
2008,12,16,03,01,-6.40
2008,12,16,03,02,-6.40
2008,12,16,03,03,-6.30
2008,12,16,03,04,-6.30
2008,12,16,03,05,-6.30
2008,12,16,03,06,-6.30
2008,12,16,03,07,-6.30
2008,12,16,03,08,-6.30
2008,12,16,03,09,-6.30
2008,12,16,03,10,-6.20
2008,12,16,03,11,-6.20
2008,12,16,03,12,-6.20
2008,12,16,03,13,-6.20
2008,12,16,03,14,-6.20
2008,12,16,03,15,-6.20
2008,12,16,03,16,-6.20
2008,12,16,03,17,-6.20
2008,12,16,03,18,-6.20
2008,12,16,03,19,-6.20
2008,12,16,03,20,-6.30
2008,12,16,03,21,-6.30
2008,12,16,03,22,-6.30
2008,12,16,03,23,-6.30
2008,12,16,03,24,-6.30
2008,12,16,03,25,-6.30
2008,12,16,03,26,-6.40
2008,12,16,03,27,-6.40
2008,12,16,03,28,-6.40
2008,12,16,03,29,-6.40
2008,12,16,03,30,-6.40
2008,12,16,03,31,-6.40
2008,12,16,03,32,-6.40
2008,12,16,03,33,-6.40
2008,12,16,03,34,-6.40
2008,12,16,03,35,-6.40
2008,12,16,03,36,-6.40
2008,12,16,03,37,-6.40
2008,12,16,03,38,-6.50
2008,12,16,03,39,-6.50
2008,12,16,03,40,-6.50
2008,12,16,03,41,-6.50
2008,12,16,03,42,-6.50
2008,12,16,03,43,-6.50
2008,12,16,03,44,-6.50
2008,12,16,03,45,-6.50
2008,12,16,03,46,-6.50
2008,12,16,03,47,-6.50
2008,12,16,03,48,-6.60
2008,12,16,03,49,-6.60
2008,12,16,03,50,-6.60
2008,12,16,03,51,-6.60
2008,12,16,03,52,-6.60
2008,12,16,03,53,-6.60
2008,12,16,03,54,-6.60
2008,12,16,03,55,-6.60
2008,12,16,03,56,-6.70
2008,12,16,03,57,-6.70
2008,12,16,03,58,-6.70
2008,12,16,03,59,-6.70
2008,12,16,04,00,-6.70
2008,12,16,04,01,-6.70
2008,12,16,04,02,-6.70
2008,12,16,04,03,-6.70
2008,12,16,04,04,-6.70
2008,12,16,04,05,-6.70
2008,12,16,04,06,-6.70
2008,12,16,04,07,-6.70
2008,12,16,04,08,-6.80
2008,12,16,04,09,-6.80
2008,12,16,04,10,-6.80
2008,12,16,04,11,-6.80
2008,12,16,04,12,-6.80
2008,12,16,04,13,-6.80
2008,12,16,04,14,-6.80
2008,12,16,04,15,-6.80
2008,12,16,04,16,-6.80
2008,12,16,04,17,-6.80
2008,12,16,04,18,-6.80
2008,12,16,04,19,-6.80
2008,12,16,04,20,-6.80
2008,12,16,04,21,-6.80
2008,12,16,04,22,-6.80
2008,12,16,04,23,-6.80
2008,12,16,04,24,-6.80
2008,12,16,04,25,-6.80
2008,12,16,04,26,-6.80
2008,12,16,04,27,-6.80
2008,12,16,04,28,-6.80
2008,12,16,04,29,-6.80
2008,12,16,04,30,-6.80
2008,12,16,04,31,-6.80
2008,12,16,04,32,-6.80
2008,12,16,04,33,-6.80
2008,12,16,04,34,-6.70
2008,12,16,04,35,-6.70
2008,12,16,04,36,-6.70
2008,12,16,04,37,-6.70
2008,12,16,04,38,-6.70
2008,12,16,04,39,-6.70
2008,12,16,04,40,-6.70
2008,12,16,04,41,-6.70
2008,12,16,04,42,-6.70
2008,12,16,04,43,-6.70
2008,12,16,04,44,-6.70
2008,12,16,04,45,-6.70
2008,12,16,04,46,-6.70
2008,12,16,04,47,-6.70
2008,12,16,04,48,-6.70
2008,12,16,04,49,-6.70
2008,12,16,04,50,-6.70
2008,12,16,04,51,-6.70
2008,12,16,04,52,-6.70
2008,12,16,04,53,-6.70
2008,12,16,04,54,-6.70
2008,12,16,04,55,-6.70
2008,12,16,04,56,-6.70
2008,12,16,04,57,-6.70
2008,12,16,04,58,-6.70
2008,12,16,04,59,-6.70
2008,12,16,05,00,-6.70
2008,12,16,05,01,-6.70
2008,12,16,05,02,-6.70
2008,12,16,05,03,-6.70
2008,12,16,05,04,-6.70
2008,12,16,05,05,-6.70
2008,12,16,05,06,-6.80
2008,12,16,05,07,-6.80
2008,12,16,05,08,-6.80
2008,12,16,05,09,-6.80
2008,12,16,05,10,-6.80
2008,12,16,05,11,-6.90
2008,12,16,05,12,-6.90
2008,12,16,05,13,-6.90
2008,12,16,05,14,-6.90
2008,12,16,05,15,-6.90
2008,12,16,05,16,-6.90
2008,12,16,05,17,-6.90
2008,12,16,05,18,-6.80
2008,12,16,05,19,-6.80
2008,12,16,05,20,-6.80
2008,12,16,05,21,-6.80
2008,12,16,05,22,-6.80
2008,12,16,05,23,-6.80
2008,12,16,05,24,-6.80
2008,12,16,05,25,-6.80
2008,12,16,05,26,-6.80
2008,12,16,05,27,-6.80
2008,12,16,05,28,-6.80
2008,12,16,05,29,-6.80
2008,12,16,05,30,-6.80
2008,12,16,05,31,-6.80
2008,12,16,05,32,-6.80
2008,12,16,05,33,-6.80
2008,12,16,05,34,-6.80
2008,12,16,05,35,-6.90
2008,12,16,05,36,-6.90
2008,12,16,05,37,-6.90
2008,12,16,05,38,-6.90
2008,12,16,05,39,-6.90
2008,12,16,05,40,-6.90
2008,12,16,05,41,-6.90
2008,12,16,05,42,-6.90
2008,12,16,05,43,-6.90
2008,12,16,05,44,-6.90
2008,12,16,05,45,-6.90
2008,12,16,05,46,-6.90
2008,12,16,05,47,-6.90
2008,12,16,05,48,-6.90
2008,12,16,05,49,-6.90
2008,12,16,05,50,-6.90
2008,12,16,05,51,-6.90
2008,12,16,05,52,-6.90
2008,12,16,05,53,-6.90
2008,12,16,05,54,-6.90
2008,12,16,05,55,-6.90
2008,12,16,05,56,-6.90
2008,12,16,05,57,-6.90
2008,12,16,05,58,-6.90
2008,12,16,05,59,-6.90
2008,12,16,06,00,-6.90
2008,12,16,06,01,-6.90
2008,12,16,06,02,-6.80
2008,12,16,06,03,-6.80
2008,12,16,06,04,-6.80
2008,12,16,06,05,-6.80
2008,12,16,06,06,-6.80
2008,12,16,06,07,-6.80
2008,12,16,06,08,-6.80
2008,12,16,06,09,-6.80
2008,12,16,06,10,-6.80
2008,12,16,06,11,-6.80
2008,12,16,06,12,-6.80
2008,12,16,06,13,-6.80
2008,12,16,06,14,-6.80
2008,12,16,06,15,-6.70
2008,12,16,06,16,-6.70
2008,12,16,06,17,-6.70
2008,12,16,06,18,-6.70
2008,12,16,06,19,-6.70
2008,12,16,06,20,-6.70
2008,12,16,06,21,-6.70
2008,12,16,06,22,-6.70
2008,12,16,06,23,-6.70
2008,12,16,06,24,-6.70
2008,12,16,06,25,-6.70
2008,12,16,06,26,-6.70
2008,12,16,06,27,-6.70
2008,12,16,06,28,-6.70
2008,12,16,06,29,-6.70
2008,12,16,06,30,-6.70
2008,12,16,06,31,-6.70
2008,12,16,06,32,-6.70
2008,12,16,06,33,-6.70
2008,12,16,06,34,-6.70
2008,12,16,06,35,-6.70
2008,12,16,06,36,-6.70
2008,12,16,06,37,-6.70
2008,12,16,06,38,-6.70
2008,12,16,06,39,-6.70
2008,12,16,06,40,-6.70
2008,12,16,06,41,-6.60
2008,12,16,06,42,-6.60
2008,12,16,06,43,-6.50
2008,12,16,06,44,-6.50
2008,12,16,06,45,-6.50
2008,12,16,06,46,-6.40
2008,12,16,06,47,-6.40
2008,12,16,06,48,-6.40
2008,12,16,06,49,-6.40
2008,12,16,06,50,-6.40
2008,12,16,06,51,-6.40
2008,12,16,06,52,-6.30
2008,12,16,06,53,-6.30
2008,12,16,06,54,-6.30
2008,12,16,06,55,-6.30
2008,12,16,06,56,-6.20
2008,12,16,06,57,-6.20
2008,12,16,06,58,-6.20
2008,12,16,06,59,-6.20
2008,12,16,07,00,-6.20
2008,12,16,07,01,-6.20
2008,12,16,07,02,-6.30
2008,12,16,07,03,-6.30
2008,12,16,07,04,-6.30
2008,12,16,07,05,-6.30
2008,12,16,07,06,-6.40
2008,12,16,07,07,-6.40
2008,12,16,07,08,-6.40
2008,12,16,07,09,-6.40
2008,12,16,07,10,-6.40
2008,12,16,07,11,-6.40
2008,12,16,07,12,-6.40
2008,12,16,07,13,-6.40
2008,12,16,07,14,-6.40
2008,12,16,07,15,-6.40
2008,12,16,07,16,-6.40
2008,12,16,07,17,-6.40
2008,12,16,07,18,-6.40
2008,12,16,07,19,-6.40
2008,12,16,07,20,-6.40
2008,12,16,07,21,-6.40
2008,12,16,07,22,-6.40
2008,12,16,07,23,-6.40
2008,12,16,07,24,-6.40
2008,12,16,07,25,-6.40
2008,12,16,07,26,-6.40
2008,12,16,07,27,-6.40
2008,12,16,07,28,-6.40
2008,12,16,07,29,-6.40
2008,12,16,07,30,-6.40
2008,12,16,07,31,-6.40
2008,12,16,07,32,-6.40
2008,12,16,07,33,-6.40
2008,12,16,07,34,-6.40
2008,12,16,07,35,-6.40
2008,12,16,07,36,-6.40
2008,12,16,07,37,-6.40
2008,12,16,07,38,-6.40
2008,12,16,07,39,-6.40
2008,12,16,07,40,-6.40
2008,12,16,07,41,-6.40
2008,12,16,07,42,-6.40
2008,12,16,07,43,-6.40
2008,12,16,07,44,-6.40
2008,12,16,07,45,-6.40
2008,12,16,07,46,-6.40
2008,12,16,07,47,-6.40
2008,12,16,07,48,-6.40
2008,12,16,07,49,-6.40
2008,12,16,07,50,-6.40
2008,12,16,07,51,-6.40
2008,12,16,07,52,-6.30
2008,12,16,07,53,-6.30
2008,12,16,07,54,-6.30
2008,12,16,07,55,-6.30
2008,12,16,07,56,-6.30
2008,12,16,07,57,-6.30
2008,12,16,07,58,-6.30
2008,12,16,07,59,-6.30
2008,12,16,08,00,-6.30
2008,12,16,08,01,-6.30
2008,12,16,08,02,-6.40
2008,12,16,08,03,-6.40
2008,12,16,08,04,-6.40
2008,12,16,08,05,-6.40
2008,12,16,08,06,-6.40
2008,12,16,08,07,-6.50
2008,12,16,08,08,-6.50
2008,12,16,08,09,-6.50
2008,12,16,08,10,-6.50
2008,12,16,08,11,-6.50
2008,12,16,08,12,-6.50
2008,12,16,08,13,-6.40
2008,12,16,08,14,-6.40
2008,12,16,08,15,-6.40
2008,12,16,08,16,-6.30
2008,12,16,08,17,-6.30
2008,12,16,08,18,-6.30
2008,12,16,08,19,-6.30
2008,12,16,08,20,-6.20
2008,12,16,08,21,-6.20
2008,12,16,08,22,-6.20
2008,12,16,08,23,-6.10
2008,12,16,08,24,-6.10
2008,12,16,08,25,-6.10
2008,12,16,08,26,-6.10
2008,12,16,08,27,-6.10
2008,12,16,08,28,-6.10
2008,12,16,08,29,-6.10
2008,12,16,08,30,-6.10
2008,12,16,08,31,-6.10
2008,12,16,08,32,-6.10
2008,12,16,08,33,-6.10
2008,12,16,08,34,-6.10
2008,12,16,08,35,-6.10
2008,12,16,08,36,-6.10
2008,12,16,08,37,-6.10
2008,12,16,08,38,-6.10
2008,12,16,08,39,-6.10
2008,12,16,08,40,-6.10
2008,12,16,08,41,-6.10
2008,12,16,08,42,-6.10
2008,12,16,08,43,-6.00
2008,12,16,08,44,-5.90
2008,12,16,08,45,-5.90
2008,12,16,08,46,-5.90
2008,12,16,08,47,-5.90
2008,12,16,08,48,-5.90
2008,12,16,08,49,-5.90
2008,12,16,08,50,-5.90
2008,12,16,08,51,-5.90
2008,12,16,08,52,-5.90
2008,12,16,08,53,-5.90
2008,12,16,08,54,-5.90
2008,12,16,08,55,-5.90
2008,12,16,08,56,-5.90
2008,12,16,08,57,-5.90
2008,12,16,08,58,-5.90
2008,12,16,08,59,-5.90
2008,12,16,09,00,-5.90
2008,12,16,09,01,-6.00
2008,12,16,09,02,-6.10
2008,12,16,09,03,-6.10
2008,12,16,09,04,-6.10
2008,12,16,09,05,-6.10
2008,12,16,09,06,-6.10
2008,12,16,09,07,-6.10
2008,12,16,09,08,-6.10
2008,12,16,09,09,-6.10
2008,12,16,09,10,-6.10
2008,12,16,09,11,-6.10
2008,12,16,09,12,-6.10
2008,12,16,09,13,-6.10
2008,12,16,09,14,-6.10
2008,12,16,09,15,-6.10
2008,12,16,09,16,-6.10
2008,12,16,09,17,-6.10
2008,12,16,09,18,-6.10
2008,12,16,09,19,-6.00
2008,12,16,09,20,-5.90
2008,12,16,09,21,-5.90
2008,12,16,09,22,-5.90
2008,12,16,09,23,-5.90
2008,12,16,09,24,-5.90
2008,12,16,09,25,-5.90
2008,12,16,09,26,-5.90
2008,12,16,09,27,-5.90
2008,12,16,09,28,-5.90
2008,12,16,09,29,-5.90
2008,12,16,09,30,-5.90
2008,12,16,09,31,-5.90
2008,12,16,09,32,-5.90
2008,12,16,09,33,-5.90
2008,12,16,09,34,-5.90
2008,12,16,09,35,-5.90
2008,12,16,09,36,-5.90
2008,12,16,09,37,-5.90
2008,12,16,09,38,-5.90
2008,12,16,09,39,-5.90
2008,12,16,09,40,-5.90
2008,12,16,09,41,-5.90
2008,12,16,09,42,-5.90
2008,12,16,09,43,-5.90
2008,12,16,09,44,-5.90
2008,12,16,09,45,-5.90
2008,12,16,09,46,-5.90
2008,12,16,09,47,-5.90
2008,12,16,09,48,-5.90
2008,12,16,09,49,-5.90
2008,12,16,09,50,-5.90
2008,12,16,09,51,-5.90
2008,12,16,09,52,-5.80
2008,12,16,09,53,-5.70
2008,12,16,09,54,-5.60
2008,12,16,09,55,-5.50
2008,12,16,09,56,-5.50
2008,12,16,09,57,-5.40
2008,12,16,09,58,-5.40
2008,12,16,09,59,-5.30
2008,12,16,10,00,-5.30
2008,12,16,10,01,-5.20
2008,12,16,10,02,-5.10
2008,12,16,10,03,-5.00
2008,12,16,10,04,-4.90
2008,12,16,10,05,-4.80
2008,12,16,10,06,-4.70
2008,12,16,10,07,-4.60
2008,12,16,10,08,-4.50
2008,12,16,10,09,-4.40
2008,12,16,10,10,-4.20
2008,12,16,10,11,-4.20
2008,12,16,10,12,-4.10
2008,12,16,10,13,-4.00
2008,12,16,10,14,-4.00
2008,12,16,10,15,-3.90
2008,12,16,10,16,-3.90
2008,12,16,10,17,-3.90
2008,12,16,10,18,-3.80
2008,12,16,10,19,-3.70
2008,12,16,10,20,-3.60
2008,12,16,10,21,-3.50
2008,12,16,10,22,-3.40
2008,12,16,10,23,-3.30
2008,12,16,10,24,-3.20
2008,12,16,10,25,-3.10
2008,12,16,10,26,-3.00
2008,12,16,10,27,-3.00
2008,12,16,10,28,-2.90
2008,12,16,10,29,-2.90
2008,12,16,10,30,-2.90
2008,12,16,10,31,-2.90
2008,12,16,10,32,-2.80
2008,12,16,10,33,-2.80
2008,12,16,10,34,-2.80
2008,12,16,10,35,-2.70
2008,12,16,10,36,-2.60
2008,12,16,10,37,-2.60
2008,12,16,10,38,-2.50
2008,12,16,10,39,-2.50
2008,12,16,10,40,-2.40
2008,12,16,10,41,-2.30
2008,12,16,10,42,-2.30
2008,12,16,10,43,-2.30
2008,12,16,10,44,-2.30
2008,12,16,10,45,-2.20
2008,12,16,10,46,-2.10
2008,12,16,10,47,-2.10
2008,12,16,10,48,-2.00
2008,12,16,10,49,-2.00
2008,12,16,10,50,-2.00
2008,12,16,10,51,-2.00
2008,12,16,10,52,-2.00
2008,12,16,10,53,-2.00
2008,12,16,10,54,-1.90
2008,12,16,10,55,-1.90
2008,12,16,10,56,-1.90
2008,12,16,10,57,-1.80
2008,12,16,10,58,-1.80
2008,12,16,10,59,-1.70
2008,12,16,11,00,-1.60
2008,12,16,11,01,-1.60
2008,12,16,11,02,-1.50
2008,12,16,11,03,-1.40
2008,12,16,11,04,-1.40
2008,12,16,11,05,-1.30
2008,12,16,11,06,-1.20
2008,12,16,11,07,-1.10
2008,12,16,11,08,-1.10
2008,12,16,11,09,-1.10
2008,12,16,11,10,-0.90
2008,12,16,11,11,-0.90
2008,12,16,11,12,-0.80
2008,12,16,11,13,-0.80
2008,12,16,11,14,-0.70
2008,12,16,11,15,-0.70
2008,12,16,11,16,-0.70
2008,12,16,11,17,-0.70
2008,12,16,11,18,-0.70
2008,12,16,11,19,-0.70
2008,12,16,11,20,-0.70
2008,12,16,11,21,-0.70
2008,12,16,11,22,-0.70
2008,12,16,11,23,-0.70
2008,12,16,11,24,-0.70
2008,12,16,11,25,-0.70
2008,12,16,11,26,-0.70
2008,12,16,11,27,-0.70
2008,12,16,11,28,-0.70
2008,12,16,11,29,-0.70
2008,12,16,11,30,-0.70
2008,12,16,11,31,-0.70
2008,12,16,11,32,-0.70
2008,12,16,11,33,-0.70
2008,12,16,11,34,-0.70
2008,12,16,11,35,-0.70
2008,12,16,11,36,-0.70
2008,12,16,11,37,-0.70
2008,12,16,11,38,-0.60
2008,12,16,11,39,-0.60
2008,12,16,11,40,-0.60
2008,12,16,11,41,-0.60
2008,12,16,11,42,-0.50
2008,12,16,11,43,-0.40
2008,12,16,11,44,-0.40
2008,12,16,11,45,-0.40
2008,12,16,11,46,-0.40
2008,12,16,11,47,-0.40
2008,12,16,11,48,-0.40
2008,12,16,11,49,-0.40
2008,12,16,11,50,-0.40
2008,12,16,11,51,-0.40
2008,12,16,11,52,-0.40
2008,12,16,11,53,-0.40
2008,12,16,11,54,-0.40
2008,12,16,11,55,-0.40
2008,12,16,11,56,-0.30
2008,12,16,11,57,-0.30
2008,12,16,11,58,-0.30
2008,12,16,11,59,-0.30
2008,12,16,12,00,-0.30
2008,12,16,12,01,-0.20
2008,12,16,12,02,-0.20
2008,12,16,12,03,-0.10
2008,12,16,12,04,-0.10
2008,12,16,12,05,-0.10
2008,12,16,12,06,-0.10
2008,12,16,12,07,-0.10
2008,12,16,12,08,-0.10
2008,12,16,12,09,-0.10
2008,12,16,12,10,-0.10
2008,12,16,12,11,0.00
2008,12,16,12,12,0.10
2008,12,16,12,13,0.10
2008,12,16,12,14,0.10
2008,12,16,12,15,0.10
2008,12,16,12,16,0.20
2008,12,16,12,17,0.20
2008,12,16,12,18,0.20
2008,12,16,12,19,0.30
2008,12,16,12,20,0.30
2008,12,16,12,21,0.30
2008,12,16,12,22,0.30
2008,12,16,12,23,0.30
2008,12,16,12,24,0.40
2008,12,16,12,25,0.40
2008,12,16,12,26,0.40
2008,12,16,12,27,0.50
2008,12,16,12,28,0.60
2008,12,16,12,29,0.60
2008,12,16,12,30,0.70
2008,12,16,12,31,0.70
2008,12,16,12,32,0.80
2008,12,16,12,33,0.80
2008,12,16,12,34,0.80
2008,12,16,12,35,0.80
2008,12,16,12,36,0.80
2008,12,16,12,37,0.80
2008,12,16,12,38,0.80
2008,12,16,12,39,0.90
2008,12,16,12,40,0.90
2008,12,16,12,41,0.90
2008,12,16,12,42,1.00
2008,12,16,12,43,1.00
2008,12,16,12,44,1.00
2008,12,16,12,45,1.00
2008,12,16,12,46,1.00
2008,12,16,12,47,1.10
2008,12,16,12,48,1.10
2008,12,16,12,49,1.10
2008,12,16,12,50,1.20
2008,12,16,12,51,1.20
2008,12,16,12,52,1.20
2008,12,16,12,53,1.20
2008,12,16,12,54,1.20
2008,12,16,12,55,1.10
2008,12,16,12,56,1.00
2008,12,16,12,57,1.00
2008,12,16,12,58,1.00
2008,12,16,12,59,0.90
2008,12,16,13,00,0.90
2008,12,16,13,01,0.80
2008,12,16,13,02,0.80
2008,12,16,13,03,0.80
2008,12,16,13,04,0.80
2008,12,16,13,05,0.80
2008,12,16,13,06,0.70
2008,12,16,13,07,0.70
2008,12,16,13,08,0.70
2008,12,16,13,09,0.70
2008,12,16,13,10,0.70
2008,12,16,13,11,0.70
2008,12,16,13,12,0.70
2008,12,16,13,13,0.70
2008,12,16,13,14,0.70
2008,12,16,13,15,0.70
2008,12,16,13,16,0.70
2008,12,16,13,17,0.70
2008,12,16,13,18,0.70
2008,12,16,13,19,0.70
2008,12,16,13,20,0.60
2008,12,16,13,21,0.60
2008,12,16,13,22,0.60
2008,12,16,13,23,0.60
2008,12,16,13,24,0.60
2008,12,16,13,25,0.50
2008,12,16,13,26,0.50
2008,12,16,13,27,0.50
2008,12,16,13,28,0.40
2008,12,16,13,29,0.40
2008,12,16,13,30,0.40
2008,12,16,13,31,0.40
2008,12,16,13,32,0.40
2008,12,16,13,33,0.40
2008,12,16,13,34,0.50
2008,12,16,13,35,0.50
2008,12,16,13,36,0.50
2008,12,16,13,37,0.50
2008,12,16,13,38,0.60
2008,12,16,13,39,0.60
2008,12,16,13,40,0.60
2008,12,16,13,41,0.70
2008,12,16,13,42,0.70
2008,12,16,13,43,0.80
2008,12,16,13,44,0.80
2008,12,16,13,45,0.80
2008,12,16,13,46,0.80
2008,12,16,13,47,0.80
2008,12,16,13,48,0.90
2008,12,16,13,49,0.90
2008,12,16,13,50,0.90
2008,12,16,13,51,1.00
2008,12,16,13,52,1.00
2008,12,16,13,53,1.00
2008,12,16,13,54,1.00
2008,12,16,13,55,0.90
2008,12,16,13,56,0.90
2008,12,16,13,57,0.90
2008,12,16,13,58,0.80
2008,12,16,13,59,0.80
2008,12,16,14,00,0.80
2008,12,16,14,01,0.80
2008,12,16,14,02,0.80
2008,12,16,14,03,0.80
2008,12,16,14,04,0.80
2008,12,16,14,05,0.80
2008,12,16,14,06,0.80
2008,12,16,14,07,0.80
2008,12,16,14,08,0.80
2008,12,16,14,09,0.80
2008,12,16,14,10,0.80
2008,12,16,14,11,0.80
2008,12,16,14,12,0.80
2008,12,16,14,13,0.80
2008,12,16,14,14,0.80
2008,12,16,14,15,0.80
2008,12,16,14,16,0.80
2008,12,16,14,17,0.80
2008,12,16,14,18,0.80
2008,12,16,14,19,0.80
2008,12,16,14,20,0.80
2008,12,16,14,21,0.80
2008,12,16,14,22,0.80
2008,12,16,14,23,0.80
2008,12,16,14,24,0.80
2008,12,16,14,25,0.80
2008,12,16,14,26,0.80
2008,12,16,14,27,0.70
2008,12,16,14,28,0.70
2008,12,16,14,29,0.70
2008,12,16,14,30,0.70
2008,12,16,14,31,0.70
2008,12,16,14,32,0.70
2008,12,16,14,33,0.60
2008,12,16,14,34,0.60
2008,12,16,14,35,0.60
2008,12,16,14,36,0.60
2008,12,16,14,37,0.50
2008,12,16,14,38,0.50
2008,12,16,14,39,0.50
2008,12,16,14,40,0.50
2008,12,16,14,41,0.40
2008,12,16,14,42,0.40
2008,12,16,14,43,0.40
2008,12,16,14,44,0.40
2008,12,16,14,45,0.40
2008,12,16,14,46,0.40
2008,12,16,14,47,0.40
2008,12,16,14,48,0.40
2008,12,16,14,49,0.40
2008,12,16,14,50,0.40
2008,12,16,14,51,0.40
2008,12,16,14,52,0.40
2008,12,16,14,53,0.30
2008,12,16,14,54,0.30
2008,12,16,14,55,0.30
2008,12,16,14,56,0.30
2008,12,16,14,57,0.20
2008,12,16,14,58,0.20
2008,12,16,14,59,0.20
2008,12,16,15,00,0.20
2008,12,16,15,01,0.20
2008,12,16,15,02,0.10
2008,12,16,15,03,0.10
2008,12,16,15,04,0.10
2008,12,16,15,05,0.10
2008,12,16,15,06,0.10
2008,12,16,15,07,0.00
2008,12,16,15,08,-0.10
2008,12,16,15,09,-0.10
2008,12,16,15,10,-0.10
2008,12,16,15,11,-0.10
2008,12,16,15,12,-0.20
2008,12,16,15,13,-0.20
2008,12,16,15,14,-0.20
2008,12,16,15,15,-0.30
2008,12,16,15,16,-0.30
2008,12,16,15,17,-0.30
2008,12,16,15,18,-0.30
2008,12,16,15,19,-0.40
2008,12,16,15,20,-0.40
2008,12,16,15,21,-0.40
2008,12,16,15,22,-0.40
2008,12,16,15,23,-0.40
2008,12,16,15,24,-0.50
2008,12,16,15,25,-0.60
2008,12,16,15,26,-0.60
2008,12,16,15,27,-0.60
2008,12,16,15,28,-0.60
2008,12,16,15,29,-0.60
2008,12,16,15,30,-0.60
2008,12,16,15,31,-0.70
2008,12,16,15,32,-0.70
2008,12,16,15,33,-0.70
2008,12,16,15,34,-0.70
2008,12,16,15,35,-0.80
2008,12,16,15,36,-0.80
2008,12,16,15,37,-0.80
2008,12,16,15,38,-0.80
2008,12,16,15,39,-0.80
2008,12,16,15,40,-0.90
2008,12,16,15,41,-0.90
2008,12,16,15,42,-0.90
2008,12,16,15,43,-0.90
2008,12,16,15,44,-0.90
2008,12,16,15,45,-0.90
2008,12,16,15,46,-0.90
2008,12,16,15,47,-0.90
2008,12,16,15,48,-1.00
2008,12,16,15,49,-1.10
2008,12,16,15,50,-1.10
2008,12,16,15,51,-1.10
2008,12,16,15,52,-1.10
2008,12,16,15,53,-1.10
2008,12,16,15,54,-1.10
2008,12,16,15,55,-1.10
2008,12,16,15,56,-1.20
2008,12,16,15,57,-1.20
2008,12,16,15,58,-1.20
2008,12,16,15,59,-1.20
2008,12,16,16,00,-1.20
2008,12,16,16,01,-1.20
2008,12,16,16,02,-1.20
2008,12,16,16,03,-1.30
2008,12,16,16,04,-1.30
2008,12,16,16,05,-1.30
2008,12,16,16,06,-1.30
2008,12,16,16,07,-1.30
2008,12,16,16,08,-1.40
2008,12,16,16,09,-1.40
2008,12,16,16,10,-1.40
2008,12,16,16,11,-1.40
2008,12,16,16,12,-1.40
2008,12,16,16,13,-1.40
2008,12,16,16,14,-1.40
2008,12,16,16,15,-1.40
2008,12,16,16,16,-1.40
2008,12,16,16,17,-1.40
2008,12,16,16,18,-1.50
2008,12,16,16,19,-1.50
2008,12,16,16,20,-1.50
2008,12,16,16,21,-1.50
2008,12,16,16,22,-1.60
2008,12,16,16,23,-1.60
2008,12,16,16,24,-1.60
2008,12,16,16,25,-1.60
2008,12,16,16,26,-1.60
2008,12,16,16,27,-1.60
2008,12,16,16,28,-1.70
2008,12,16,16,29,-1.70
2008,12,16,16,30,-1.70
2008,12,16,16,31,-1.70
2008,12,16,16,32,-1.70
2008,12,16,16,33,-1.80
2008,12,16,16,34,-1.80
2008,12,16,16,35,-1.80
2008,12,16,16,36,-1.80
2008,12,16,16,37,-1.80
2008,12,16,16,38,-1.80
2008,12,16,16,39,-1.80
2008,12,16,16,40,-1.80
2008,12,16,16,41,-1.80
2008,12,16,16,42,-1.80
2008,12,16,16,43,-1.80
2008,12,16,16,44,-1.90
2008,12,16,16,45,-1.90
2008,12,16,16,46,-1.90
2008,12,16,16,47,-1.90
2008,12,16,16,48,-1.90
2008,12,16,16,49,-1.90
2008,12,16,16,50,-1.90
2008,12,16,16,51,-1.90
2008,12,16,16,52,-1.90
2008,12,16,16,53,-1.90
2008,12,16,16,54,-1.90
2008,12,16,16,55,-2.00
2008,12,16,16,56,-2.00
2008,12,16,16,57,-2.00
2008,12,16,16,58,-2.00
2008,12,16,16,59,-2.00
2008,12,16,17,00,-2.00
2008,12,16,17,01,-2.00
2008,12,16,17,02,-2.00
2008,12,16,17,03,-2.00
2008,12,16,17,04,-2.00
2008,12,16,17,05,-2.00
2008,12,16,17,06,-2.00
2008,12,16,17,07,-2.00
2008,12,16,17,08,-2.00
2008,12,16,17,09,-2.00
2008,12,16,17,10,-2.00
2008,12,16,17,11,-2.00
2008,12,16,17,12,-2.00
2008,12,16,17,13,-2.00
2008,12,16,17,14,-2.00
2008,12,16,17,15,-2.00
2008,12,16,17,16,-2.00
2008,12,16,17,17,-2.00
2008,12,16,17,18,-2.10
2008,12,16,17,19,-2.10
2008,12,16,17,20,-2.10
2008,12,16,17,21,-2.10
2008,12,16,17,22,-2.10
2008,12,16,17,23,-2.10
2008,12,16,17,24,-2.10
2008,12,16,17,25,-2.20
2008,12,16,17,26,-2.20
2008,12,16,17,27,-2.20
2008,12,16,17,28,-2.20
2008,12,16,17,29,-2.20
2008,12,16,17,30,-2.20
2008,12,16,17,31,-2.20
2008,12,16,17,32,-2.30
2008,12,16,17,33,-2.30
2008,12,16,17,34,-2.30
2008,12,16,17,35,-2.30
2008,12,16,17,36,-2.30
2008,12,16,17,37,-2.30
2008,12,16,17,38,-2.40
2008,12,16,17,39,-2.40
2008,12,16,17,40,-2.40
2008,12,16,17,41,-2.40
2008,12,16,17,42,-2.50
2008,12,16,17,43,-2.50
2008,12,16,17,44,-2.50
2008,12,16,17,45,-2.50
2008,12,16,17,46,-2.60
2008,12,16,17,47,-2.60
2008,12,16,17,48,-2.60
2008,12,16,17,49,-2.60
2008,12,16,17,50,-2.70
2008,12,16,17,51,-2.70
2008,12,16,17,52,-2.70
2008,12,16,17,53,-2.80
2008,12,16,17,54,-2.80
2008,12,16,17,55,-2.80
2008,12,16,17,56,-2.80
2008,12,16,17,57,-2.80
2008,12,16,17,58,-2.80
2008,12,16,17,59,-2.80
2008,12,16,18,00,-2.80
2008,12,16,18,01,-2.80
2008,12,16,18,02,-2.80
2008,12,16,18,03,-2.80
2008,12,16,18,04,-2.80
2008,12,16,18,05,-2.80
2008,12,16,18,06,-2.80
2008,12,16,18,07,-2.80
2008,12,16,18,08,-2.80
2008,12,16,18,09,-2.80
2008,12,16,18,10,-2.80
2008,12,16,18,11,-2.80
2008,12,16,18,12,-2.80
2008,12,16,18,13,-2.80
2008,12,16,18,14,-2.80
2008,12,16,18,15,-2.80
2008,12,16,18,16,-2.80